Change the Weather History Date:

Sunday, October 27, 2013

  Actual Average Record
Temperature  
Mean Temperature 56 °F -  
Max Temperature 61 °F 47 °F 61 °F (2013)
Min Temperature 50 °F 38 °F 24 °F (1997)
Degree Days  
Heating Degree Days 10    
Growing Degree Days 6 (Base 50)    
Moisture  
Dew Point 48 °F    
Average Humidity 79    
Maximum Humidity 94    
Minimum Humidity 49    
Precipitation  
Precipitation 0.08 in - - ()
Sea Level Pressure  
Sea Level Pressure 29.86 in    
Wind  
Wind Speed 10 mph ()    
Max Wind Speed 23 mph    
Max Gust Speed 36 mph    
Visibility 5.7 miles    
Events Rain    
Averages and records for this station are not official NWS values.
T = Trace of Precipitation, MM = Missing Value Source: Averaged Metar Reports

Daily Weather History Graph

Daily Weather History Graph

Search for Another Location

Airport or City:

Trip Planner

Search our weather history database for the weather conditions in past years. The results will help you decide how hot, cold, wet, or windy it might be!

Date:

Astronomy

Oct. 27, 2013 Rise Set
Actual Time 6:54 AM CET 4:57 PM CET
Civil Twilight 6:20 AM CET 5:31 PM CET
Nautical Twilight 5:42 AM CET 6:09 PM CET
Astronomical Twilight 5:05 AM CET 6:46 PM CET
Moon 11:56 PM CET (10/27) 1:35 PM CET (10/27)
Length of Visible Light 11h 10m
Length of Day
10h 02m
Last Quarter, 45% of the Moon is Illuminated
Oct 27
Last Quarter
Nov 3
New
Nov 10
First Quarter
Nov 17
Full
Nov 25
Last Quarter

Hourly Weather History & Observations

Time (CET) Temp. Dew Point Humidity Pressure Visibility Wind Dir Wind Speed Gust Speed Precip Events Conditions
12:00 AM 54 °F 52 °F 90% 29.98 in 6 mi South 6.7 mph - -   Overcast
12:20 AM 51.8 °F 48.2 °F 88% 30.01 in 4.3 mi South 4.6 mph - N/A   Mist
12:50 AM 51.8 °F 48.2 °F 88% 30.01 in 5.0 mi SSE 3.5 mph - N/A   Partly Cloudy
1:00 AM 53 °F 51 °F 91% 29.97 in 6 mi SSE 4.5 mph - -   Overcast
1:20 AM 51.8 °F 48.2 °F 88% 29.98 in 3.7 mi SSE 3.5 mph - N/A   Partly Cloudy
1:50 AM 50.0 °F 48.2 °F 94% 29.98 in 5.0 mi South 3.5 mph - N/A   Partly Cloudy
2:00 AM 53 °F 51 °F 91% 29.95 in 4 mi SSE 4.5 mph - -   Mist
2:20 AM 50.0 °F 48.2 °F 94% 29.98 in 5.6 mi South 4.6 mph - N/A   Mist
2:50 AM 50.0 °F 48.2 °F 94% 29.95 in 4.3 mi South 4.6 mph - N/A   Mist
2:00 AM 52 °F 51 °F 93% 29.94 in 4 mi South 6.7 mph - -   Mist
2:20 AM 50.0 °F 46.4 °F 87% 29.95 in 3.1 mi South 4.6 mph - N/A   Mist
2:50 AM 50.0 °F 48.2 °F 94% 29.92 in - Variable 2.3 mph - N/A   Scattered Clouds
3:00 AM 53 °F 51 °F 90% 29.90 in 5 mi SSE 6.7 mph - -   Overcast
3:20 AM 51.8 °F 48.2 °F 88% 29.92 in 3.7 mi SSE 3.5 mph - N/A   Mostly Cloudy
3:50 AM 51.8 °F 50.0 °F 94% 29.92 in 5.0 mi South 3.5 mph - N/A   Partly Cloudy
4:20 AM 51.8 °F 50.0 °F 94% 29.92 in 4.3 mi WSW 5.8 mph - N/A   Partly Cloudy
4:50 AM 53.6 °F 50.0 °F 88% 29.92 in 5.0 mi Variable 1.2 mph - N/A   Mostly Cloudy
5:00 AM 52 °F 50 °F 91% 29.91 in 4 mi South 2.2 mph - -   Mist
5:20 AM 53.6 °F 50.0 °F 88% 29.92 in 6.2 mi SSW 6.9 mph - N/A   Overcast
5:50 AM 53.6 °F 50.0 °F 88% 29.92 in 6.2 mi SSW 6.9 mph - N/A   Mostly Cloudy
6:00 AM 55 °F 52 °F 85% 29.90 in 10 mi SW 8.9 mph - - Rain Light Rain
6:20 AM 55.4 °F 50.0 °F 82% 29.92 in 5.6 mi SSW 10.4 mph - N/A Rain Light Rain
6:50 AM 55.4 °F 51.8 °F 88% 29.92 in 6.2 mi SSW 10.4 mph - N/A Rain Light Rain
7:00 AM 55 °F 53 °F 88% 29.88 in 12 mi SW 8.9 mph - - Rain Light Rain
7:20 AM 53.6 °F 50.0 °F 88% 29.92 in 5.0 mi SSW 13.8 mph - N/A Rain Rain
7:50 AM 53.6 °F 50.0 °F 88% 29.89 in 5.0 mi SSW 18.4 mph - N/A Rain Heavy Rain
8:00 AM 54 °F 51 °F 88% 29.84 in 7 mi SSW 13.4 mph - - Rain Rain
8:20 AM 53.6 °F 50.0 °F 88% 29.89 in 6.2 mi SSW 19.6 mph 31.1 mph N/A   Partly Cloudy
8:50 AM 53.6 °F 50.0 °F 88% 29.89 in 6.2 mi SSW 17.3 mph - N/A   Mostly Cloudy
9:00 AM 54 °F 51 °F 86% 29.87 in 47 mi SSW 11.2 mph - - Rain Light Rain
9:20 AM 53.6 °F 50.0 °F 88% 29.89 in 6.2 mi SSW 13.8 mph - N/A   Overcast
9:50 AM 53.6 °F 50.0 °F 88% 29.89 in 6.2 mi SSW 17.3 mph 29.9 mph N/A   Overcast
10:20 AM 55.4 °F 50.0 °F 82% 29.89 in 6.2 mi SSW 20.7 mph - N/A   Mostly Cloudy
10:50 AM 57.2 °F 50.0 °F 77% 29.86 in 6.2 mi SSW 19.6 mph - N/A   Scattered Clouds
11:00 AM 57 °F 50 °F 72% 29.83 in 47 mi SW 15.7 mph - -   Scattered Clouds
11:20 AM 59.0 °F 48.2 °F 67% 29.86 in 6.2 mi SSW 21.9 mph - N/A   Partly Cloudy
11:50 AM 60.8 °F 48.2 °F 63% 29.83 in 6.2 mi SSW 18.4 mph - N/A   Partly Cloudy
12:00 PM 59 °F 49 °F 62% 29.79 in 47 mi SW 13.4 mph - -   Scattered Clouds
12:20 PM 59.0 °F 46.4 °F 63% 29.83 in 6.2 mi SSW 21.9 mph - N/A   Partly Cloudy
12:50 PM 60.8 °F 46.4 °F 59% 29.83 in 6.2 mi SSW 16.1 mph - N/A   Partly Cloudy
1:00 PM 60 °F 47 °F 53% 29.76 in 47 mi SW 11.2 mph - -   Partly Cloudy
1:20 PM 60.8 °F 44.6 °F 55% 29.80 in 6.2 mi SSW 23.0 mph 34.5 mph N/A   Partly Cloudy
1:50 PM 60.8 °F 44.6 °F 55% 29.80 in 6.2 mi SSW 20.7 mph 32.2 mph N/A   Partly Cloudy
2:00 PM 60 °F 46 °F 49% 29.75 in 47 mi SW 13.4 mph - -   Mostly Cloudy
2:20 PM 59.0 °F 44.6 °F 59% 29.80 in 6.2 mi SSW 15.0 mph 27.6 mph N/A   Scattered Clouds
2:50 PM 59.0 °F 44.6 °F 59% 29.77 in 6.2 mi SSW 16.1 mph - N/A   Mostly Cloudy
3:00 PM 60 °F 47 °F 51% 29.73 in 47 mi SW 11.2 mph - - Rain Light Rain
3:20 PM 57.2 °F 46.4 °F 67% 29.77 in 5.6 mi SW 23.0 mph - N/A   Drizzle
3:29 PM 55.4 °F 48.2 °F 77% 29.80 in 3.1 mi SW 16.1 mph - N/A Rain Rain
3:50 PM 53.6 °F 48.2 °F 82% 29.80 in 3.7 mi SW 18.4 mph 31.1 mph N/A Rain Rain
4:20 PM 53.6 °F 48.2 °F 82% 29.77 in 6.2 mi SSW 18.4 mph - N/A   Scattered Clouds
4:50 PM 53.6 °F 48.2 °F 82% 29.77 in 6.2 mi SW 18.4 mph - N/A   Mostly Cloudy
5:00 PM 54 °F 50 °F 81% 29.75 in 47 mi SW 17.9 mph - - Rain Light Rain Showers
5:20 PM 53.6 °F 48.2 °F 82% 29.77 in 6.2 mi SW 17.3 mph - N/A   Mostly Cloudy
5:50 PM 53.6 °F 46.4 °F 77% 29.80 in 6.2 mi SSW 19.6 mph 35.7 mph N/A   Mostly Cloudy
6:00 PM 54 °F 48 °F 75% 29.76 in 44 mi SW 17.9 mph - - Rain Rain
6:20 PM 53.6 °F 44.6 °F 72% 29.77 in 6.2 mi SW 19.6 mph - N/A Rain Light Rain
6:50 PM 53.6 °F 44.6 °F 72% 29.80 in 6.2 mi SW 23.0 mph 34.5 mph N/A   Mostly Cloudy
7:00 PM 53 °F 47 °F 72% 29.80 in 44 mi WSW 20.1 mph - - Rain Rain
7:20 PM 51.8 °F 44.6 °F 76% 29.83 in 6.2 mi SW 17.3 mph - N/A   Overcast
7:50 PM 51.8 °F 44.6 °F 76% 29.83 in 6.2 mi SW 17.3 mph - N/A   Mostly Cloudy
8:00 PM 53 °F 46 °F 70% 29.81 in 44 mi WSW 15.7 mph - -  
8:20 PM 51.8 °F 42.8 °F 71% 29.83 in 6.2 mi SW 16.1 mph - N/A   Mostly Cloudy
8:50 PM 50.0 °F 42.8 °F 76% 29.86 in 6.2 mi SW 16.1 mph - N/A   Mostly Cloudy
9:00 PM 51 °F 45 °F 74% 29.84 in 44 mi SW 11.2 mph - -   Overcast
9:20 PM 50.0 °F 42.8 °F 76% 29.86 in 6.2 mi SW 16.1 mph - N/A   Mostly Cloudy
9:50 PM 50.0 °F 42.8 °F 76% 29.86 in 6.2 mi SW 18.4 mph - N/A   Mostly Cloudy
10:20 PM 50.0 °F 42.8 °F 76% 29.86 in 6.2 mi SW 18.4 mph - N/A   Overcast
10:50 PM 50.0 °F 42.8 °F 76% 29.86 in 6.2 mi SW 18.4 mph 29.9 mph N/A   Overcast